Location: Holcomb Observatory
(44.4922°N, 73.1654°W)
Time: 15:34:48
(UTC-04:00)

Cosmos 2360 Rocket - Visible Passes

Search period start: 22 July 2014 00:00
Search period end: 01 August 2014 00:00
Orbit: 834 x 845 km, 71.0° (Epoch: 21 July)

Date Brightness Start Highest point End Pass type
(mag) Time Alt. Az. Time Alt. Az. Time Alt. Az.
22 Jul 3.9 21:06:59 10° N 21:11:05 20° NE 21:15:11 10° E visible
22 Jul 2.2 22:50:06 10° NNW 22:55:46 78° WSW 22:58:10 36° SSE visible
23 Jul 4.5 00:37:33 10° W 00:38:46 11° W 00:39:56 10° WSW visible
23 Jul 2.2 22:34:31 10° NNW 22:40:11 82° WSW 22:42:59 31° SSE visible
24 Jul 4.4 00:21:25 10° WNW 00:23:15 12° W 00:24:45 11° WSW visible
24 Jul 2.2 22:18:56 10° NNW 22:24:37 87° WSW 22:27:50 27° SSE visible
25 Jul 4.4 00:05:27 10° WNW 00:07:43 13° W 00:09:36 11° WSW visible
25 Jul 2.2 22:03:21 10° NNW 22:09:02 88° ENE 22:12:43 23° SSE visible
25 Jul 4.4 23:49:34 10° WNW 23:52:11 14° W 23:54:30 11° WSW visible
26 Jul 2.2 21:47:46 10° NNW 21:53:27 84° ENE 21:57:38 19° SSE visible
26 Jul 4.4 23:33:44 10° WNW 23:36:40 15° W 23:39:25 10° SW visible
27 Jul 2.2 21:32:12 10° NNW 21:37:53 79° ENE 21:42:37 15° SSE visible
27 Jul 4.4 23:17:57 10° WNW 23:21:08 16° W 23:24:19 10° SW visible
28 Jul 2.2 21:16:37 10° NNW 21:22:18 75° ENE 21:27:38 12° SSE visible
28 Jul 4.4 23:02:11 10° WNW 23:05:36 17° W 23:09:02 10° SW visible
29 Jul 2.3 21:01:03 10° NNW 21:06:43 71° ENE 21:12:21 10° SSE visible
29 Jul 4.4 22:46:26 10° WNW 22:50:05 18° W 22:53:42 10° SW visible
30 Jul 2.3 20:45:29 10° NNW 20:51:08 67° ENE 20:56:45 10° SE visible
30 Jul 4.3 22:30:43 10° WNW 22:34:33 19° W 22:38:22 10° SW visible
31 Jul 4.3 22:15:01 10° NW 22:19:01 20° W 22:23:00 10° SW visible
